Simultaneous Nadir Overpasses (SNOs) Predictions

Prediction of SNOs between GOES-16 and TERRA Satellite Orbit:

Table of predicted SNOs for the next 14.0 days since TLE Epoch: 9/2/2023
Index Date Time (GOES-16) GOES-16 Lat,Lon TERRA Lat,Lon Distance(km) Time Diff (sec)
1 09/02/2023 15:05:46 -0.05, -75.21 0.14, -76.19 110.15 80
2 09/04/2023 14:52:01 -0.05, -75.23 -0.68, -72.22 341.78 80
3 09/05/2023 03:09:40 0.05, -75.22 -0.35, -77.16 220.42 80
4 09/07/2023 02:55:55 0.04, -75.23 0.48, -73.19 232.07 80
5 09/07/2023 15:13:24 -0.05, -75.25 0.54, -78.10 323.03 80
6 09/09/2023 14:59:39 -0.04, -75.27 -0.26, -74.12 130.26 80
7 09/10/2023 03:19:57 0.04, -75.27 -0.77, -79.06 431.55 80
8 09/12/2023 03:00:52 0.04, -75.30 0.11, -75.10 22.89 80
9 09/14/2023 02:44:26 0.04, -75.34 0.95, -71.14 477.88 80
10 09/14/2023 15:07:15 -0.04, -75.36 0.11, -76.03 76.35 80
